Hourly Weather Alihanmahi

Today, 25 February, Thursday

Time Temperature Precipitation Wind Pressure Humidity
00:00 -13°C° 0 mm 1 mps 634 mmHg 52%
01:00 -13°C° 0 mm 1 mps 634 mmHg 49%
02:00 -13°C° 0 mm 1 mps 633 mmHg 45%
03:00 -13°C° 0 mm 1 mps 633 mmHg 41%
04:00 -13°C° 0 mm 1 mps 633 mmHg 39%
05:00 -13°C° 0 mm 1 mps 633 mmHg 36%
06:00 -12°C° 0 mm 1 mps 633 mmHg 33%
07:00 -11°C° 0 mm 1 mps 634 mmHg 34%
08:00 -9°C° 0 mm 1 mps 634 mmHg 36%
09:00 -7°C° 0 mm 1 mps 635 mmHg 37%
10:00 -6°C° 0 mm 1 mps 635 mmHg 37%
11:00 -4°C° 0 mm 1 mps 635 mmHg 37%
12:00 -2°C° 0 mm 1 mps 636 mmHg 36%
13:00 -2°C° 0 mm 1 mps 635 mmHg 39%
14:00 -2°C° 0 mm 1 mps 635 mmHg 42%
15:00 -2°C° 0 mm 1 mps 634 mmHg 44%
16:00 -3°C° 0 mm 1 mps 634 mmHg 48%
17:00 -4°C° 0 mm 1 mps 633 mmHg 52%
18:00 -7°C° 0 mm 1 mps 632 mmHg 56%
19:00 -7°C° 0 mm 1 mps 632 mmHg 55%
20:00 -7°C° 0 mm 1 mps 632 mmHg 53%
21:00 -7°C° 0 mm 1 mps 632 mmHg 52%
22:00 -7°C° 0 mm 1 mps 632 mmHg 52%
23:00 -6°C° 0 mm 1 mps 632 mmHg 51%

Tomorrow, 26 February, Friday

Time Temperature Precipitation Wind Pressure Humidity
00:00 -6°C° 0 mm 1 mps 631 mmHg 51%
01:00 -6°C° 0 mm 1 mps 631 mmHg 52%
02:00 -6°C° 0 mm 1 mps 631 mmHg 52%
03:00 -6°C° 0 mm 1 mps 631 mmHg 53%
04:00 -6°C° 0 mm 1 mps 630 mmHg 53%
05:00 -6°C° 0 mm 1 mps 630 mmHg 53%
06:00 -6°C° 0 mm 1 mps 630 mmHg 53%
07:00 -4°C° 0 mm 1 mps 630 mmHg 52%
08:00 -3°C° 0 mm 1 mps 631 mmHg 52%
09:00 -3°C° 0 mm 0 mps 631 mmHg 52%
10:00 -1°C° 0 mm 1 mps 631 mmHg 54%
11:00 0°C° 0 mm 1 mps 631 mmHg 56%
12:00 0°C° 0 mm 1 mps 632 mmHg 59%
13:00 +1°C° 0 mm 1 mps 631 mmHg 61%
14:00 +1°C° 0 mm 1 mps 631 mmHg 62%
15:00 +1°C° 0 mm 1 mps 631 mmHg 64%
16:00 -1°C° 0 mm 1 mps 630 mmHg 68%
17:00 -2°C° 0 mm 1 mps 630 mmHg 72%
18:00 -5°C° 0 mm 0 mps 629 mmHg 77%
19:00 -5°C° 0 mm 0 mps 629 mmHg 77%
20:00 -4°C° 0 mm 1 mps 629 mmHg 77%
21:00 -4°C° 0 mm 1 mps 629 mmHg 77%
22:00 -4°C° 0 mm 1 mps 629 mmHg 76%
23:00 -5°C° 0 mm 0 mps 629 mmHg 76%

Day after tomorrow, 27 February, Saturday

Time Temperature Precipitation Wind Pressure Humidity
00:00 -5°C° 0 mm 0 mps 629 mmHg 75%
01:00 -5°C° 0 mm 0 mps 628 mmHg 75%
02:00 -5°C° 0 mm 0 mps 628 mmHg 75%
03:00 -5°C° 0 mm 0 mps 628 mmHg 74%
04:00 -6°C° 0 mm 1 mps 627 mmHg 73%
05:00 -6°C° 0 mm 1 mps 627 mmHg 72%
06:00 -6°C° 0 mm 1 mps 627 mmHg 71%
07:00 -4°C° 0 mm 1 mps 627 mmHg 68%
08:00 -3°C° 0 mm 0 mps 628 mmHg 65%
09:00 -2°C° 0 mm 0 mps 628 mmHg 62%
10:00 -1°C° 0 mm 0 mps 628 mmHg 62%
11:00 +1°C° 0 mm 1 mps 628 mmHg 62%
12:00 +2°C° 0 mm 1 mps 628 mmHg 62%
13:00 +2°C° 0 mm 1 mps 628 mmHg 63%
14:00 +2°C° 0 mm 1 mps 627 mmHg 64%
15:00 +2°C° 0 mm 1 mps 627 mmHg 65%
16:00 +1°C° 0 mm 1 mps 626 mmHg 71%
17:00 -1°C° 0 mm 1 mps 626 mmHg 76%
18:00 -3°C° 0 mm 0 mps 625 mmHg 82%
19:00 -3°C° 0 mm 1 mps 625 mmHg 80%
20:00 -3°C° 0 mm 1 mps 625 mmHg 79%
21:00 -3°C° 0 mm 1 mps 625 mmHg 77%
22:00 -3°C° 0 mm 1 mps 624 mmHg 74%
23:00 -3°C° 0 mm 1 mps 624 mmHg 71%

28 February, Sunday

Time Temperature Precipitation Wind Pressure Humidity
00:00 -3°C° 0 mm 1 mps 624 mmHg 67%
01:00 -4°C° 0 mm 1 mps 623 mmHg 65%
02:00 -4°C° 0 mm 1 mps 623 mmHg 63%
03:00 -4°C° 0 mm 1 mps 623 mmHg 61%
04:00 -6°C° 0 mm 2 mps 622 mmHg 60%
05:00 -6°C° 0 mm 2 mps 622 mmHg 59%
06:00 -6°C° 0 mm 2 mps 622 mmHg 58%
07:00 -3°C° 0 mm 1 mps 623 mmHg 56%
08:00 -1°C° 0 mm 1 mps 623 mmHg 54%
09:00 0°C° 0 mm 1 mps 623 mmHg 52%
10:00 +1°C° 0 mm 1 mps 624 mmHg 54%
11:00 +2°C° 0 mm 1 mps 624 mmHg 56%
12:00 +3°C° 0 mm 1 mps 624 mmHg 58%
13:00 +2°C° 0 mm 2 mps 624 mmHg 61%
14:00 +2°C° 0 mm 2 mps 623 mmHg 64%
15:00 +2°C° 0 mm 2 mps 623 mmHg 68%
16:00 -1°C° 0 mm 2 mps 623 mmHg 73%
17:00 0°C° 0 mm 1 mps 623 mmHg 79%
18:00 -2°C° 0 mm 1 mps 622 mmHg 84%
19:00 -2°C° 0 mm 1 mps 623 mmHg 86%
20:00 -3°C° 0 mm 1 mps 623 mmHg 87%
21:00 -3°C° 0 mm 1 mps 623 mmHg 88%
22:00 -3°C° 0.1 mm 1 mps 624 mmHg 89%
23:00 -3°C° 0.1 mm 1 mps 624 mmHg 89%

1 March, Monday

Time Temperature Precipitation Wind Pressure Humidity
00:00 -3°C° 0.1 mm 1 mps 624 mmHg 90%
01:00 -3°C° 0.3 mm 1 mps 625 mmHg 90%
02:00 -4°C° 0.3 mm 1 mps 625 mmHg 91%
03:00 -4°C° 0.3 mm 1 mps 625 mmHg 91%
04:00 -4°C° 0.4 mm 1 mps 625 mmHg 91%
05:00 -4°C° 0.4 mm 1 mps 626 mmHg 91%
06:00 -6°C° 0.4 mm 1 mps 626 mmHg 91%
07:00 -4°C° 0.3 mm 1 mps 626 mmHg 90%
08:00 -4°C° 0.3 mm 1 mps 627 mmHg 90%
09:00 -3°C° 0.3 mm 1 mps 628 mmHg 90%
10:00 -5°C° 0.3 mm 2 mps 628 mmHg 90%
11:00 -5°C° 0.3 mm 2 mps 628 mmHg 91%
12:00 -4°C° 0.3 mm 2 mps 628 mmHg 92%
13:00 -4°C° 0.6 mm 2 mps 628 mmHg 92%
14:00 -4°C° 0.6 mm 2 mps 628 mmHg 93%
15:00 -4°C° 0.6 mm 2 mps 628 mmHg 94%
16:00 -5°C° 0.7 mm 2 mps 629 mmHg 94%
17:00 -6°C° 0.7 mm 2 mps 629 mmHg 95%
18:00 -4°C° 0.7 mm 1 mps 629 mmHg 96%
19:00 -6°C° 0.2 mm 1 mps 629 mmHg 96%
20:00 -6°C° 0.2 mm 1 mps 629 mmHg 96%
21:00 -7°C° 0.2 mm 1 mps 629 mmHg 96%
22:00 -7°C° 0.1 mm 1 mps 629 mmHg 96%
23:00 -7°C° 0.1 mm 1 mps 630 mmHg 95%

2 March, Tuesday

Time Temperature Precipitation Wind Pressure Humidity
00:00 -7°C° 0.1 mm 1 mps 630 mmHg 95%
01:00 -7°C° 0.3 mm 1 mps 630 mmHg 95%
02:00 -7°C° 0.3 mm 1 mps 630 mmHg 95%
03:00 -7°C° 0.3 mm 1 mps 630 mmHg 95%
04:00 -7°C° 0.4 mm 1 mps 630 mmHg 96%
05:00 -7°C° 0.4 mm 1 mps 630 mmHg 96%
06:00 -7°C° 0.4 mm 1 mps 630 mmHg 96%
07:00 -7°C° 0.4 mm 1 mps 630 mmHg 95%
08:00 -6°C° 0.4 mm 1 mps 631 mmHg 94%
09:00 -6°C° 0.4 mm 1 mps 631 mmHg 94%
10:00 -6°C° 0.3 mm 1 mps 631 mmHg 92%
11:00 -6°C° 0.3 mm 2 mps 631 mmHg 91%
12:00 -6°C° 0.3 mm 2 mps 631 mmHg 90%
13:00 -6°C° 0.1 mm 2 mps 631 mmHg 90%
14:00 -6°C° 0.1 mm 2 mps 630 mmHg 90%
15:00 -6°C° 0.1 mm 2 mps 630 mmHg 90%
16:00 -6°C° 0 mm 1 mps 630 mmHg 91%
17:00 -6°C° 0 mm 1 mps 629 mmHg 93%
18:00 -7°C° 0 mm 0 mps 629 mmHg 94%
19:00 -8°C° 0 mm 1 mps 629 mmHg 91%
20:00 -8°C° 0 mm 1 mps 629 mmHg 87%
21:00 -10°C° 0 mm 2 mps 629 mmHg 84%
22:00 -10°C° 0 mm 2 mps 628 mmHg 80%
23:00 -10°C° 0 mm 2 mps 628 mmHg 76%
Show more